Location: Burland Observatory
(39.4088°N, 105.4217°W)
Time: 16:27:40
(UTC-07:00)

Vanguard 3 - Pass Details

Date: 10 December 2019
Orbit: 508 x 3263 km, 33.4° (Epoch: 20 January)

Event Time Altitude Azimuth Distance (km) Brightness Sun altitude
Rises 11:51:21 0° 274° (W) 5,046 11.2 27.7°
Reaches altitude 10° 11:54:12 10° 271° (W) 4,361 10.9 27.7°
Maximum altitude 12:06:54 59° 196° (SSW) 3,022 11.2 27.6°
Drops below altitude 10° 12:25:43 10° 124° (SE) 6,189 12.1 27.2°
Sets 12:30:43 0° 121° (ESE) 7,207 12.2 27.1°
